Location: Allison Elementary School
(34.0784°N, 117.7317°W)
Time: 17:40:46
(UTC+00:00)

Cosmos 1464 Rocket - Pass Details

Date: 15 November 2019
Orbit: 951 x 1002 km, 82.9° (Epoch: 07 December)

Event Time Altitude Azimuth Distance (km) Brightness Sun altitude
Rises 02:01:40 0° 355° (N) 3,646 6.9 -15.5°
Reaches altitude 10° 02:04:11 10° 358° (N) 2,692 6.2 -16.0°
Maximum altitude 02:10:20 75° 84° (E) 986 3.8 -17.2°
Drops below altitude 10° 02:16:25 10° 169° (S) 2,667 6.3 -18.5°
Sets 02:18:54 0° 171° (S) 3,610 7.0 -19.0°
